Fort Polk, LA

6:28 AM CDT on October 18, 2019 (GMT -0500)
Fort Polk

Weather History for KAQV - September, 2019

Change the Weather History Date:

Monday, September 23, 2019

  Actual Average (WUND) Record (WUND)
Temperature  
Mean Temperature 80 °F -  
Max Temperature 93 °F - - (-1)
Min Temperature 69 °F - - (-1)
Cooling Degree Days 15    
Growing Degree Days 30 (Base 50)    
Moisture  
Dew Point 70 °F    
Average Humidity 79    
Maximum Humidity 97    
Minimum Humidity 48    
Precipitation  
Precipitation 0.00 in - - ()
Sea Level Pressure  
Sea Level Pressure 30.04 in    
Wind  
Wind Speed 1 mph (North)    
Max Wind Speed 6 mph    
Max Gust Speed -    
Visibility 8 miles    
Events Fog    
Averages and records for this station are not official NWS values.
T = Trace of Precipitation, MM = Missing Value Source: NWS Daily Summary

Daily Weather History Graph

Daily Weather History Graph

Search for Another Location

Airport or City:

Astronomy

Sep. 23, 2019 Rise Set
Actual Time 7:01 AM CDT 7:08 PM CDT
Civil Twilight 6:37 AM CDT 7:32 PM CDT
Nautical Twilight 6:09 AM CDT 8:01 PM CDT
Astronomical Twilight 5:40 AM CDT 8:29 PM CDT
Moon 1:09 AM CDT (9/23) 3:39 PM CDT (9/23)
Length of Visible Light 12h 55m
Length of Day
12h 06m
Waning Crescent, 33% of the Moon is Illuminated
Sep 23
Waning Crescent
Sep 28
New
Oct 5
First Quarter
Oct 13
Full
Oct 21
Last Quarter

Hourly Weather History & Observations

Time (CDT) Temp. Heat Index Dew Point Humidity Pressure Visibility Wind Dir Wind Speed Gust Speed Precip Events Conditions
12:56 AM 73.9 °F - 70.0 °F 87% 30.02 in 10.0 mi Calm Calm - N/A   Clear
1:56 AM 72.0 °F - 69.1 °F 91% 30.03 in 10.0 mi Calm Calm - N/A   Clear
2:56 AM 73.0 °F - 69.1 °F 87% 30.02 in 10.0 mi Calm Calm - N/A   Clear
3:56 AM 71.1 °F - 69.1 °F 93% 30.02 in 8.0 mi Calm Calm - N/A   Clear
4:56 AM 70.0 °F - 68.0 °F 93% 30.03 in 8.0 mi Calm Calm - N/A   Clear
5:56 AM 69.1 °F - 66.9 °F 93% 30.03 in 8.0 mi Calm Calm - N/A   Clear
6:35 AM 70.0 °F - 66.9 °F 90% 30.05 in 10.0 mi Calm Calm - N/A   Mostly Cloudy
6:56 AM 69.1 °F - 66.9 °F 93% 30.04 in 8.0 mi Calm Calm - N/A   Overcast
7:34 AM 70.0 °F - 68.0 °F 93% 30.06 in 7.0 mi Calm Calm - N/A   Overcast
7:42 AM 70.0 °F - 68.0 °F 93% 30.06 in 8.0 mi Calm Calm - N/A   Overcast
7:54 AM 71.6 °F - 69.8 °F 94% 30.06 in 1.8 mi Calm Calm - N/A   Overcast
7:56 AM 72.0 °F - 70.0 °F 93% 30.06 in 1.5 mi Calm Calm - N/A   Overcast
8:18 AM 73.0 °F - 71.1 °F 93% 30.07 in 0.5 mi Calm Calm - N/A Fog Fog
8:30 AM 73.9 °F - 72.0 °F 93% 30.07 in 1.2 mi Calm Calm - N/A   Overcast
8:41 AM 73.9 °F - 73.0 °F 97% 30.07 in 3.0 mi Variable 3.5 mph - N/A   Overcast
8:56 AM 75.0 °F - 73.0 °F 94% 30.06 in 9.0 mi Variable 3.5 mph - N/A   Overcast
9:22 AM 80.1 °F 84.5 °F 73.9 °F 81% 30.08 in 10.0 mi Variable 3.5 mph - N/A   Mostly Cloudy
9:56 AM 82.0 °F 87.9 °F 73.9 °F 76% 30.08 in 10.0 mi Variable 5.8 mph - N/A   Partly Cloudy
10:10 AM 82.0 °F 87.4 °F 73.0 °F 74% 30.09 in 10.0 mi SSW 4.6 mph - N/A   Mostly Cloudy
10:56 AM 87.1 °F 94.5 °F 73.0 °F 63% 30.09 in 10.0 mi Variable 4.6 mph - N/A   Mostly Cloudy
11:03 AM 84.9 °F 90.7 °F 72.0 °F 65% 30.10 in 10.0 mi WSW 3.5 mph - N/A   Mostly Cloudy
11:11 AM 84.9 °F 90.7 °F 72.0 °F 65% 30.09 in 10.0 mi Calm Calm - N/A   Mostly Cloudy
11:56 AM 87.1 °F 92.8 °F 71.1 °F 59% 30.07 in 10.0 mi Variable 4.6 mph - N/A   Partly Cloudy
12:56 PM 91.0 °F 96.6 °F 70.0 °F 50% 30.05 in 10.0 mi North 4.6 mph - N/A   Scattered Clouds
1:56 PM 89.1 °F 93.7 °F 69.1 °F 52% 30.02 in 10.0 mi Calm Calm - N/A   Overcast
2:56 PM 89.1 °F 92.9 °F 68.0 °F 50% 30.00 in 10.0 mi Calm Calm - 0.00 in   Overcast
3:56 PM 91.0 °F 95.6 °F 69.1 °F 48% 29.99 in 10.0 mi ENE 5.8 mph - N/A   Overcast
4:56 PM 86.0 °F 91.5 °F 71.1 °F 61% 29.98 in 10.0 mi NNE 5.8 mph - N/A   Mostly Cloudy
5:56 PM 87.1 °F 92.0 °F 70.0 °F 57% 29.98 in 10.0 mi Calm Calm - N/A   Overcast
7:56 PM 79.0 °F - 72.0 °F 79% 29.98 in 10.0 mi Calm Calm - N/A   Clear
8:56 PM 77.0 °F - 72.0 °F 84% 29.99 in 10.0 mi Calm Calm - N/A   Clear
9:56 PM 75.0 °F - 71.1 °F 87% 29.99 in 10.0 mi Calm Calm - N/A   Clear
10:56 PM 75.0 °F - 71.1 °F 87% 29.99 in 10.0 mi Calm Calm - N/A   Clear
11:56 PM 75.9 °F - 72.0 °F 87% 29.99 in 10.0 mi Calm Calm - N/A   Clear